This demonstration page uses our WeatherBlox Daily Observations layout. Learn more.

Left ArrowRight Arrow

39.08367, -84.50855

Hourly Observations for January 13, 2018

Temp ( °F °C ) Dew Point ( °F °C ) Humidity (%) Winds ( mph kmh ) Pressure ( in mb ) Visibility ( mi km ) Precip ( " mm )
12:07 am 00:07 Cloudy 21 -6.1 12 -11.1 68 68 N 18 30 30.18 1022 10 16.0934 0 0
12:27 am 00:27 Cloudy 21 -6.1 12 -11.1 68 68 N 16 26 30.18 1022 10 16.0934 0 0
12:53 am 00:53 Cloudy 21 -6.1 11 -11.7 65 65 N 20 31 30.18 1022 10 16.0934 0 0
1:53 am 01:53 Cloudy 20 -6.7 9 -12.8 62 62 N 12 19 30.2 1023 10 16.0934 0 0
2:53 am 02:53 Mostly Cloudy 20 -6.7 7 -13.9 57 57 N 16 26 30.23 1024 10 16.0934 0 0
3:53 am 03:53 Clear 18 -7.8 5 -15 57 57 N 15 24 30.27 1025 10 16.0934 0 0
4:53 am 04:53 Clear 17 -8.3 5 -15 59 59 N 14 22 30.31 1027 10 16.0934 0 0
5:53 am 05:53 Clear 16 -8.9 5 -15 62 62 N 13 20 30.35 1028 10 16.0934 0 0
6:53 am 06:53 Mostly Cloudy 14 -10 5 -15 67 67 NNW 10 17 30.4 1030 10 16.0934 0 0
7:53 am 07:53 Cloudy 14 -10 4 -15.6 64 64 N 9 15 30.44 1031 10 16.0934 0 0
8:53 am 08:53 Partly Cloudy 14 -10 3 -16.1 61 61 N 8 13 30.47 1032 10 16.0934 0 0
9:53 am 09:53 Partly Cloudy 16 -8.9 4 -15.6 59 59 N 12 19 30.51 1033 10 16.0934 0 0
10:53 am 10:53 Mostly Sunny 17 -8.3 3 -16.1 54 54 N 12 19 30.55 1034 10 16.0934 0 0
11:53 am 11:53 Partly Cloudy 19 -7.2 3 -16.1 49 49 N 12 19 30.55 1035 10 16.0934 0 0
12:53 pm 12:53 Mostly Cloudy 19 -7.2 4 -15.6 51 51 N 9 15 30.55 1035 10 16.0934 0 0
1:53 pm 13:53 Partly Cloudy 19 -7.2 4 -15.6 51 51 N 10 17 30.55 1034 10 16.0934 0 0
2:53 pm 14:53 Partly Cloudy 20 -6.7 4 -15.6 50 50 N 12 19 30.55 1035 10 16.0934 0 0
3:53 pm 15:53 Mostly Cloudy 20 -6.7 5 -15 52 52 NNE 13 20 30.57 1035 10 16.0934 0 0
4:53 pm 16:53 Cloudy 19 -7.2 5 -15 54 54 N 10 17 30.6 1036 10 16.0934 0 0
5:53 pm 17:53 Cloudy 19 -7.2 6 -14.4 57 57 NNW 7 11 30.62 1037 10 16.0934 0 0
6:53 pm 18:53 Cloudy 19 -7.2 7 -13.9 59 59 N 5 7 30.63 1037 10 16.0934 0 0
7:53 pm 19:53 Cloudy 17 -8.3 7 -13.9 64 64 NE 5 7 30.65 1038 10 16.0934 0 0
8:53 pm 20:53 Cloudy 18 -7.8 9 -12.8 68 68 Calm 30.66 1038 10 16.0934 0 0
9:53 pm 21:53 Clear 14 -10 8 -13.3 77 77 Calm 30.67 1039 10 16.0934 0 0
10:53 pm 22:53 Cloudy 13 -10.6 10 -12.2 88 88 NE 3 6 30.68 1039 10 16.0934 0 0
11:53 pm 23:53 Cloudy 14 -10 10 -12.2 84 84 NNE 5 7 30.68 1039 10 16.0934 0 0

Powered by AerisWeather